Time,TemperatureF,DewpointF,PressureIn,WindDirection,WindDirectionDegrees,WindSpeedMPH,WindSpeedGustMPH,Humidity,HourlyPrecipIn,Conditions,Clouds,dailyrainin,SoftwareType,DateUTC
2013-07-10 00:01:00,77.7,32.1,29.79,WSW,257,0.0,0.0,19,0.00,,,0.00,Wunderground v.1.15,2013-07-10 07:01:00,
2013-07-10 00:07:00,77.7,32.1,29.79,WSW,248,0.0,0.0,19,0.00,,,0.00,Wunderground v.1.15,2013-07-10 07:07:00,
2013-07-10 00:12:00,77.7,32.1,29.80,WNW,288,0.0,0.0,19,0.00,,,0.00,Wunderground v.1.15,2013-07-10 07:12:00,
2013-07-10 00:18:00,77.6,32.1,29.79,West,266,0.0,0.0,19,0.00,,,0.00,Wunderground v.1.15,2013-07-10 07:18:00,
2013-07-10 00:24:00,77.4,31.9,29.79,West,260,0.0,0.0,19,0.00,,,0.00,Wunderground v.1.15,2013-07-10 07:24:00,
2013-07-10 00:30:00,77.1,32.9,29.80,SW,230,0.0,0.0,20,0.00,,,0.00,Wunderground v.1.15,2013-07-10 07:30:00,
2013-07-10 00:36:00,76.8,32.7,29.80,WSW,244,0.0,0.0,20,0.00,,,0.00,Wunderground v.1.15,2013-07-10 07:36:00,
2013-07-10 00:41:00,76.6,32.5,29.80,West,271,0.0,0.0,20,0.00,,,0.00,Wunderground v.1.15,2013-07-10 07:41:00,
2013-07-10 00:47:00,76.3,32.3,29.80,West,279,0.0,0.0,20,0.00,,,0.00,Wunderground v.1.15,2013-07-10 07:47:00,
2013-07-10 00:53:00,76.3,32.3,29.79,WNW,297,0.0,0.0,20,0.00,,,0.00,Wunderground v.1.15,2013-07-10 07:53:00,
2013-07-10 00:59:00,75.7,33.0,29.80,WSW,243,0.0,0.0,21,0.00,,,0.00,Wunderground v.1.15,2013-07-10 07:59:00,
2013-07-10 01:05:00,75.3,32.6,29.80,WSW,257,0.0,0.0,21,0.00,,,0.00,Wunderground v.1.15,2013-07-10 08:05:00,
2013-07-10 01:10:00,75.0,32.4,29.80,WSW,252,0.0,0.0,21,0.00,,,0.00,Wunderground v.1.15,2013-07-10 08:10:00,
2013-07-10 01:16:00,74.8,32.2,29.80,WNW,297,0.0,0.0,21,0.00,,,0.00,Wunderground v.1.15,2013-07-10 08:16:00,
2013-07-10 01:22:00,74.7,32.1,29.80,NW,316,0.0,0.0,21,0.00,,,0.00,Wunderground v.1.15,2013-07-10 08:22:00,
2013-07-10 01:28:00,73.8,32.6,29.81,NW,311,0.0,0.0,22,0.00,,,0.00,Wunderground v.1.15,2013-07-10 08:28:00,
2013-07-10 01:34:00,74.3,33.0,29.80,WNW,295,0.0,0.0,22,0.00,,,0.00,Wunderground v.1.15,2013-07-10 08:34:00,
2013-07-10 01:39:00,74.7,33.3,29.80,WSW,241,0.0,0.0,22,0.00,,,0.00,Wunderground v.1.15,2013-07-10 08:39:00,
2013-07-10 01:45:00,74.7,33.3,29.80,West,271,0.0,0.0,22,0.00,,,0.00,Wunderground v.1.15,2013-07-10 08:45:00,
2013-07-10 01:51:00,74.6,33.2,29.80,WNW,284,0.0,0.0,22,0.00,,,0.00,Wunderground v.1.15,2013-07-10 08:51:00,
2013-07-10 01:56:00,74.3,33.0,29.80,WNW,283,0.0,0.0,22,0.00,,,0.00,Wunderground v.1.15,2013-07-10 08:56:00,
2013-07-10 02:02:00,73.7,33.6,29.80,WSW,249,0.0,0.0,23,0.00,,,0.00,Wunderground v.1.15,2013-07-10 09:02:00,
2013-07-10 02:08:00,72.8,33.9,29.80,WSW,251,0.0,0.0,24,0.00,,,0.00,Wunderground v.1.15,2013-07-10 09:08:00,
2013-07-10 02:14:00,72.4,33.5,29.80,WNW,295,0.0,0.0,24,0.00,,,0.00,Wunderground v.1.15,2013-07-10 09:14:00,
2013-07-10 02:19:00,72.2,34.4,29.80,West,276,0.0,0.0,25,0.00,,,0.00,Wunderground v.1.15,2013-07-10 09:19:00,
2013-07-10 02:25:00,71.8,34.1,29.80,WSW,252,0.0,0.0,25,0.00,,,0.00,Wunderground v.1.15,2013-07-10 09:25:00,
2013-07-10 02:31:00,71.5,33.8,29.80,West,259,1.0,1.0,25,0.00,,,0.00,Wunderground v.1.15,2013-07-10 09:31:00,
2013-07-10 02:36:00,71.6,33.9,29.80,West,259,2.0,3.0,25,0.00,,,0.00,Wunderground v.1.15,2013-07-10 09:36:00,
2013-07-10 02:42:00,71.7,34.0,29.80,West,264,3.0,5.0,25,0.00,,,0.00,Wunderground v.1.15,2013-07-10 09:42:00,
2013-07-10 02:48:00,71.4,33.7,29.80,WSW,258,2.0,5.0,25,0.00,,,0.00,Wunderground v.1.15,2013-07-10 09:48:00,
2013-07-10 02:54:00,70.8,34.2,29.80,WSW,240,1.0,1.0,26,0.00,,,0.00,Wunderground v.1.15,2013-07-10 09:54:00,
2013-07-10 02:59:00,71.3,33.6,29.80,West,260,0.0,1.0,25,0.00,,,0.00,Wunderground v.1.15,2013-07-10 09:59:00,
2013-07-10 03:05:00,72.1,34.3,29.80,West,262,0.0,0.0,25,0.00,,,0.00,Wunderground v.1.15,2013-07-10 10:05:00,
2013-07-10 03:11:00,72.3,33.5,29.80,West,259,0.0,0.0,24,0.00,,,0.00,Wunderground v.1.15,2013-07-10 10:11:00,
2013-07-10 03:17:00,72.3,33.5,29.80,WSW,257,0.0,0.0,24,0.00,,,0.00,Wunderground v.1.15,2013-07-10 10:17:00,
2013-07-10 03:23:00,72.2,33.4,29.80,West,262,0.0,0.0,24,0.00,,,0.00,Wunderground v.1.15,2013-07-10 10:23:00,
2013-07-10 03:29:00,71.6,33.9,29.80,West,269,0.0,0.0,25,0.00,,,0.00,Wunderground v.1.15,2013-07-10 10:29:00,
2013-07-10 03:34:00,71.5,33.8,29.80,West,271,0.0,0.0,25,0.00,,,0.00,Wunderground v.1.15,2013-07-10 10:34:00,
2013-07-10 03:39:00,71.4,33.7,29.80,West,266,0.0,0.0,25,0.00,,,0.00,Wunderground v.1.15,2013-07-10 10:39:00,
2013-07-10 03:45:00,70.9,33.3,29.80,WSW,238,0.0,0.0,25,0.00,,,0.00,Wunderground v.1.15,2013-07-10 10:45:00,
2013-07-10 03:50:00,70.4,33.9,29.80,WSW,258,1.0,2.0,26,0.00,,,0.00,Wunderground v.1.15,2013-07-10 10:50:00,
2013-07-10 03:57:00,69.9,33.4,29.80,WSW,245,2.0,2.0,26,0.00,,,0.00,Wunderground v.1.15,2013-07-10 10:57:00,
2013-07-10 04:03:00,69.6,33.2,29.80,West,264,1.0,1.0,26,0.00,,,0.00,Wunderground v.1.15,2013-07-10 11:03:00,
2013-07-10 04:09:00,69.7,33.3,29.80,West,259,0.0,1.0,26,0.00,,,0.00,Wunderground v.1.15,2013-07-10 11:09:00,
2013-07-10 04:15:00,69.0,33.6,29.80,WNW,286,0.0,0.0,27,0.00,,,0.00,Wunderground v.1.15,2013-07-10 11:15:00,
2013-07-10 04:21:00,68.9,33.5,29.80,West,265,0.0,0.0,27,0.00,,,0.00,Wunderground v.1.15,2013-07-10 11:21:00,
2013-07-10 04:27:00,68.1,33.7,29.80,SW,231,0.0,0.0,28,0.00,,,0.00,Wunderground v.1.15,2013-07-10 11:27:00,
2013-07-10 04:33:00,67.8,33.5,29.80,SW,231,0.0,0.0,28,0.00,,,0.00,Wunderground v.1.15,2013-07-10 11:33:00,
2013-07-10 04:39:00,67.6,34.2,29.80,SW,231,0.0,0.0,29,0.00,,,0.00,Wunderground v.1.15,2013-07-10 11:39:00,
2013-07-10 04:44:00,67.1,34.6,29.80,SW,231,0.0,0.0,30,0.00,,,0.00,Wunderground v.1.15,2013-07-10 11:44:00,
2013-07-10 04:50:00,66.7,34.3,29.80,SW,231,0.0,0.0,30,0.00,,,0.00,Wunderground v.1.15,2013-07-10 11:50:00,
2013-07-10 04:56:00,66.8,33.5,29.80,WSW,238,0.0,0.0,29,0.00,,,0.00,Wunderground v.1.15,2013-07-10 11:56:00,
2013-07-10 05:02:00,66.8,34.3,29.81,WSW,245,0.0,0.0,30,0.00,,,0.00,Wunderground v.1.15,2013-07-10 12:02:00,
2013-07-10 05:07:00,66.5,33.2,29.81,WSW,253,0.0,0.0,29,0.00,,,0.00,Wunderground v.1.15,2013-07-10 12:07:00,
2013-07-10 05:13:00,66.3,33.9,29.81,SW,233,0.0,0.0,30,0.00,,,0.00,Wunderground v.1.15,2013-07-10 12:13:00,
2013-07-10 05:19:00,66.0,33.7,29.81,WSW,245,0.0,0.0,30,0.00,,,0.00,Wunderground v.1.15,2013-07-10 12:19:00,
2013-07-10 05:25:00,66.0,33.7,29.81,WSW,246,0.0,0.0,30,0.00,,,0.00,Wunderground v.1.15,2013-07-10 12:25:00,
2013-07-10 05:31:00,66.6,33.3,29.82,WSW,238,0.0,0.0,29,0.00,,,0.00,Wunderground v.1.15,2013-07-10 12:31:00,
2013-07-10 05:37:00,66.8,33.5,29.82,WSW,252,0.0,0.0,29,0.00,,,0.00,Wunderground v.1.15,2013-07-10 12:37:00,
2013-07-10 05:43:00,67.2,33.8,29.82,WSW,253,0.0,0.0,29,0.00,,,0.00,Wunderground v.1.15,2013-07-10 12:43:00,
2013-07-10 05:49:00,66.6,33.3,29.82,WSW,256,0.0,0.0,29,0.00,,,0.00,Wunderground v.1.15,2013-07-10 12:49:00,
2013-07-10 05:55:00,66.2,33.8,29.82,West,262,0.0,0.0,30,0.00,,,0.00,Wunderground v.1.15,2013-07-10 12:55:00,
2013-07-10 06:00:00,66.4,34.0,29.82,WSW,252,0.0,0.0,30,0.00,,,0.00,Wunderground v.1.15,2013-07-10 13:00:00,
2013-07-10 06:05:00,66.6,34.2,29.82,WSW,251,0.0,0.0,30,0.00,,,0.00,Wunderground v.1.15,2013-07-10 13:05:00,
2013-07-10 06:11:00,66.2,34.7,29.82,West,260,0.0,0.0,31,0.00,,,0.00,Wunderground v.1.15,2013-07-10 13:11:00,
2013-07-10 06:16:00,66.0,35.3,29.82,West,271,0.0,0.0,32,0.00,,,0.00,Wunderground v.1.15,2013-07-10 13:16:00,
2013-07-10 06:22:00,67.2,34.7,29.83,WNW,301,0.0,0.0,30,0.00,,,0.00,Wunderground v.1.15,2013-07-10 13:22:00,
2013-07-10 06:28:00,68.4,34.9,29.83,West,273,0.0,0.0,29,0.00,,,0.00,Wunderground v.1.15,2013-07-10 13:28:00,
2013-07-10 06:34:00,68.8,35.2,29.83,WSW,250,0.0,0.0,29,0.00,,,0.00,Wunderground v.1.15,2013-07-10 13:34:00,
2013-07-10 06:40:00,69.6,35.0,29.83,West,260,0.0,0.0,28,0.00,,,0.00,Wunderground v.1.15,2013-07-10 13:40:00,
2013-07-10 06:46:00,70.0,35.4,29.83,WNW,289,0.0,0.0,28,0.00,,,0.00,Wunderground v.1.15,2013-07-10 13:46:00,
2013-07-10 06:52:00,70.7,35.1,29.83,WSW,257,0.0,0.0,27,0.00,,,0.00,Wunderground v.1.15,2013-07-10 13:52:00,
2013-07-10 06:58:00,71.4,34.7,29.83,WNW,288,0.0,0.0,26,0.00,,,0.00,Wunderground v.1.15,2013-07-10 13:58:00,
2013-07-10 07:04:00,71.8,35.0,29.83,West,278,0.0,0.0,26,0.00,,,0.00,Wunderground v.1.15,2013-07-10 14:04:00,
2013-07-10 07:10:00,72.6,34.7,29.83,WNW,302,0.0,0.0,25,0.00,,,0.00,Wunderground v.1.15,2013-07-10 14:10:00,
2013-07-10 07:16:00,73.2,34.2,29.83,WSW,257,0.0,0.0,24,0.00,,,0.00,Wunderground v.1.15,2013-07-10 14:16:00,
2013-07-10 07:22:00,73.7,34.6,29.83,WSW,252,0.0,0.0,24,0.00,,,0.00,Wunderground v.1.15,2013-07-10 14:22:00,
2013-07-10 07:28:00,74.5,34.2,29.83,WSW,239,0.0,0.0,23,0.00,,,0.00,Wunderground v.1.15,2013-07-10 14:28:00,
2013-07-10 07:34:00,74.9,33.5,29.83,SW,236,0.0,0.0,22,0.00,,,0.00,Wunderground v.1.15,2013-07-10 14:34:00,
2013-07-10 07:40:00,75.6,35.2,29.83,WSW,245,0.0,0.0,23,0.00,,,0.00,Wunderground v.1.15,2013-07-10 14:40:00,
2013-07-10 07:46:00,76.2,33.4,29.83,West,264,0.0,0.0,21,0.00,,,0.00,Wunderground v.1.15,2013-07-10 14:46:00,
2013-07-10 07:52:00,76.8,33.9,29.83,NW,315,0.0,0.0,21,0.00,,,0.00,Wunderground v.1.15,2013-07-10 14:52:00,
2013-07-10 07:58:00,77.5,34.5,29.83,West,277,0.0,0.0,21,0.00,,,0.00,Wunderground v.1.15,2013-07-10 14:58:00,
2013-07-10 08:04:00,77.7,34.6,29.83,North,349,0.0,0.0,21,0.00,,,0.00,Wunderground v.1.15,2013-07-10 15:04:00,
2013-07-10 08:10:00,78.2,35.0,29.83,West,275,0.0,0.0,21,0.00,,,0.00,Wunderground v.1.15,2013-07-10 15:10:00,
2013-07-10 08:16:00,78.5,35.3,29.83,West,278,0.0,0.0,21,0.00,,,0.00,Wunderground v.1.15,2013-07-10 15:16:00,
2013-07-10 08:22:00,78.7,34.2,29.83,NW,312,0.0,0.0,20,0.00,,,0.00,Wunderground v.1.15,2013-07-10 15:22:00,
2013-07-10 08:28:00,79.2,33.4,29.83,NW,307,0.0,0.0,19,0.00,,,0.00,Wunderground v.1.15,2013-07-10 15:28:00,
2013-07-10 08:34:00,79.8,32.5,29.84,NW,311,0.0,0.0,18,0.00,,,0.00,Wunderground v.1.15,2013-07-10 15:34:00,
2013-07-10 08:40:00,80.1,31.3,29.84,WNW,295,0.0,0.0,17,0.00,,,0.00,Wunderground v.1.15,2013-07-10 15:40:00,
2013-07-10 08:45:00,80.4,31.6,29.84,WNW,292,0.0,0.0,17,0.00,,,0.00,Wunderground v.1.15,2013-07-10 15:45:00,
2013-07-10 08:51:00,81.5,32.5,29.83,WSW,241,0.0,0.0,17,0.00,,,0.00,Wunderground v.1.15,2013-07-10 15:51:00,
2013-07-10 08:56:00,81.9,32.8,29.83,NNE,28,0.0,0.0,17,0.00,,,0.00,Wunderground v.1.15,2013-07-10 15:56:00,
2013-07-10 09:02:00,81.4,30.9,29.84,NNW,343,0.0,0.0,16,0.00,,,0.00,Wunderground v.1.15,2013-07-10 16:02:00,
2013-07-10 09:08:00,82.8,30.4,29.83,North,349,0.0,0.0,15,0.00,,,0.00,Wunderground v.1.15,2013-07-10 16:08:00,
2013-07-10 09:14:00,82.2,29.9,29.83,WNW,285,0.0,0.0,15,0.00,,,0.00,Wunderground v.1.15,2013-07-10 16:14:00,
2013-07-10 09:20:00,82.1,28.2,29.83,NW,311,0.0,0.0,14,0.00,,,0.00,Wunderground v.1.15,2013-07-10 16:20:00,
2013-07-10 09:26:00,82.2,28.2,29.83,SW,226,0.0,0.0,14,0.00,,,0.00,Wunderground v.1.15,2013-07-10 16:26:00,
2013-07-10 09:32:00,83.0,30.6,29.83,WSW,244,0.0,0.0,15,0.00,,,0.00,Wunderground v.1.15,2013-07-10 16:32:00,
2013-07-10 09:38:00,83.6,29.3,29.83,WSW,247,0.0,0.0,14,0.00,,,0.00,Wunderground v.1.15,2013-07-10 16:38:00,
2013-07-10 09:45:00,84.2,28.0,29.82,NNW,337,0.0,0.0,13,0.00,,,0.00,Wunderground v.1.15,2013-07-10 16:45:00,
2013-07-10 09:50:00,83.4,27.4,29.82,NW,312,0.0,0.0,13,0.00,,,0.00,Wunderground v.1.15,2013-07-10 16:50:00,
2013-07-10 09:56:00,82.9,27.0,29.82,WNW,293,0.0,0.0,13,0.00,,,0.00,Wunderground v.1.15,2013-07-10 16:56:00,
2013-07-10 10:02:00,84.0,27.8,29.82,SW,216,0.0,0.0,13,0.00,,,0.00,Wunderground v.1.15,2013-07-10 17:02:00,
2013-07-10 10:07:00,83.8,27.7,29.82,NW,308,0.0,0.0,13,0.00,,,0.00,Wunderground v.1.15,2013-07-10 17:07:00,
2013-07-10 10:12:00,83.7,27.6,29.82,NNE,20,0.0,0.0,13,0.00,,,0.00,Wunderground v.1.15,2013-07-10 17:12:00,
2013-07-10 10:18:00,84.2,28.0,29.82,South,179,0.0,0.0,13,0.00,,,0.00,Wunderground v.1.15,2013-07-10 17:18:00,
2013-07-10 10:25:00,84.7,28.4,29.82,WSW,256,0.0,0.0,13,0.00,,,0.00,Wunderground v.1.15,2013-07-10 17:25:00,
2013-07-10 10:30:00,85.0,28.6,29.82,SW,219,0.0,0.0,13,0.00,,,0.00,Wunderground v.1.15,2013-07-10 17:30:00,
2013-07-10 10:36:00,85.1,26.8,29.81,East,94,0.0,0.0,12,0.00,,,0.00,Wunderground v.1.15,2013-07-10 17:36:00,
2013-07-10 10:41:00,85.0,28.6,29.81,WNW,287,0.0,0.0,13,0.00,,,0.00,Wunderground v.1.15,2013-07-10 17:41:00,
2013-07-10 10:47:00,85.3,26.9,29.80,East,96,0.0,0.0,12,0.00,,,0.00,Wunderground v.1.15,2013-07-10 17:47:00,
2013-07-10 10:53:00,84.6,28.3,29.80,NE,42,0.0,0.0,13,0.00,,,0.00,Wunderground v.1.15,2013-07-10 17:53:00,
2013-07-10 10:59:00,85.2,28.8,29.80,SSE,167,0.0,0.0,13,0.00,,,0.00,Wunderground v.1.15,2013-07-10 17:59:00,
2013-07-10 11:05:00,85.3,26.9,29.80,NNW,330,0.0,0.0,12,0.00,,,0.00,Wunderground v.1.15,2013-07-10 18:05:00,
2013-07-10 11:11:00,85.1,28.7,29.80,WSW,245,0.0,0.0,13,0.00,,,0.00,Wunderground v.1.15,2013-07-10 18:11:00,
2013-07-10 11:16:00,86.0,27.5,29.79,SSW,208,0.0,0.0,12,0.00,,,0.00,Wunderground v.1.15,2013-07-10 18:16:00,
2013-07-10 11:23:00,86.4,25.7,29.79,SE,130,0.0,0.0,11,0.00,,,0.00,Wunderground v.1.15,2013-07-10 18:23:00,
2013-07-10 11:29:00,85.7,27.2,29.79,East,84,0.0,0.0,12,0.00,,,0.00,Wunderground v.1.15,2013-07-10 18:29:00,
2013-07-10 11:34:00,85.8,27.3,29.78,East,82,0.0,0.0,12,0.00,,,0.00,Wunderground v.1.15,2013-07-10 18:34:00,
2013-07-10 11:40:00,86.4,27.8,29.78,SSW,206,0.0,0.0,12,0.00,,,0.00,Wunderground v.1.15,2013-07-10 18:40:00,
2013-07-10 11:46:00,87.4,28.5,29.78,SW,232,0.0,0.0,12,0.00,,,0.00,Wunderground v.1.15,2013-07-10 18:46:00,
2013-07-10 11:52:00,87.4,28.5,29.78,SSW,195,0.0,0.0,12,0.00,,,0.00,Wunderground v.1.15,2013-07-10 18:52:00,
2013-07-10 11:58:00,87.9,26.8,29.78,West,263,0.0,0.0,11,0.00,,,0.00,Wunderground v.1.15,2013-07-10 18:58:00,
2013-07-10 12:03:00,88.4,27.2,29.78,SSW,196,0.0,0.0,11,0.00,,,0.00,Wunderground v.1.15,2013-07-10 19:03:00,
2013-07-10 12:09:00,88.6,27.3,29.77,SSW,193,0.0,0.0,11,0.00,,,0.00,Wunderground v.1.15,2013-07-10 19:09:00,
2013-07-10 12:15:00,89.4,25.7,29.77,East,92,0.0,0.0,10,0.00,,,0.00,Wunderground v.1.15,2013-07-10 19:15:00,
2013-07-10 12:21:00,90.0,26.1,29.77,South,188,0.0,0.0,10,0.00,,,0.00,Wunderground v.1.15,2013-07-10 19:21:00,
2013-07-10 12:26:00,90.8,26.7,29.76,SSW,212,0.0,0.0,10,0.00,,,0.00,Wunderground v.1.15,2013-07-10 19:26:00,
2013-07-10 12:32:00,90.8,26.7,29.76,SSE,153,0.0,0.0,10,0.00,,,0.00,Wunderground v.1.15,2013-07-10 19:32:00,
2013-07-10 12:37:00,90.5,26.5,29.76,SSE,165,0.0,0.0,10,0.00,,,0.00,Wunderground v.1.15,2013-07-10 19:37:00,
2013-07-10 12:43:00,91.6,29.6,29.76,SSW,206,0.0,0.0,11,0.00,,,0.00,Wunderground v.1.15,2013-07-10 19:43:00,
2013-07-10 12:49:00,91.1,29.3,29.75,SSE,167,0.0,0.0,11,0.00,,,0.00,Wunderground v.1.15,2013-07-10 19:49:00,
2013-07-10 12:54:00,91.6,27.3,29.75,SSE,165,0.0,0.0,10,0.00,,,0.00,Wunderground v.1.15,2013-07-10 19:54:00,
2013-07-10 13:01:00,91.6,27.3,29.75,SSW,206,0.0,0.0,10,0.00,,,0.00,Wunderground v.1.15,2013-07-10 20:01:00,
2013-07-10 13:06:00,92.1,27.7,29.74,SW,220,0.0,0.0,10,0.00,,,0.00,Wunderground v.1.15,2013-07-10 20:06:00,
2013-07-10 13:12:00,92.3,30.2,29.74,SSW,212,0.0,0.0,11,0.00,,,0.00,Wunderground v.1.15,2013-07-10 20:12:00,
2013-07-10 13:17:00,91.7,27.4,29.74,South,174,0.0,0.0,10,0.00,,,0.00,Wunderground v.1.15,2013-07-10 20:17:00,
2013-07-10 13:22:00,92.2,27.8,29.74,South,170,0.0,0.0,10,0.00,,,0.00,Wunderground v.1.15,2013-07-10 20:22:00,
2013-07-10 13:28:00,92.2,27.8,29.73,SW,217,0.0,0.0,10,0.00,,,0.00,Wunderground v.1.15,2013-07-10 20:28:00,
2013-07-10 13:34:00,92.3,30.2,29.73,SW,217,0.0,0.0,11,0.00,,,0.00,Wunderground v.1.15,2013-07-10 20:34:00,
2013-07-10 13:40:00,92.2,30.1,29.72,SW,216,0.0,0.0,11,0.00,,,0.00,Wunderground v.1.15,2013-07-10 20:40:00,
2013-07-10 13:46:00,92.3,27.9,29.72,SSW,197,0.0,0.0,10,0.00,,,0.00,Wunderground v.1.15,2013-07-10 20:46:00,
2013-07-10 13:51:00,92.7,28.2,29.72,South,188,0.0,0.0,10,0.00,,,0.00,Wunderground v.1.15,2013-07-10 20:51:00,
2013-07-10 13:57:00,93.0,28.4,29.72,South,176,0.0,0.0,10,0.00,,,0.00,Wunderground v.1.15,2013-07-10 20:57:00,
2013-07-10 14:03:00,93.0,30.7,29.72,South,169,0.0,0.0,11,0.00,,,0.00,Wunderground v.1.15,2013-07-10 21:03:00,
2013-07-10 14:09:00,92.7,28.2,29.72,SSW,192,0.0,0.0,10,0.00,,,0.00,Wunderground v.1.15,2013-07-10 21:09:00,
2013-07-10 14:15:00,92.9,28.3,29.72,SSW,193,0.0,0.0,10,0.00,,,0.00,Wunderground v.1.15,2013-07-10 21:15:00,
2013-07-10 14:21:00,92.6,28.1,29.71,SSW,198,0.0,0.0,10,0.00,,,0.00,Wunderground v.1.15,2013-07-10 21:21:00,
2013-07-10 14:27:00,93.6,28.8,29.71,WSW,243,0.0,0.0,10,0.00,,,0.00,Wunderground v.1.15,2013-07-10 21:27:00,
2013-07-10 14:33:00,94.5,29.5,29.71,SE,138,0.0,0.0,10,0.00,,,0.00,Wunderground v.1.15,2013-07-10 21:33:00,
2013-07-10 14:39:00,94.2,29.3,29.70,SW,221,0.0,0.0,10,0.00,,,0.00,Wunderground v.1.15,2013-07-10 21:39:00,
2013-07-10 14:45:00,94.7,29.7,29.70,SSW,213,0.0,0.0,10,0.00,,,0.00,Wunderground v.1.15,2013-07-10 21:45:00,
2013-07-10 14:51:00,94.5,29.5,29.70,SSW,212,0.0,0.0,10,0.00,,,0.00,Wunderground v.1.15,2013-07-10 21:51:00,
2013-07-10 14:57:00,94.2,29.3,29.70,SW,223,0.0,0.0,10,0.00,,,0.00,Wunderground v.1.15,2013-07-10 21:57:00,
2013-07-10 15:02:00,93.9,29.1,29.70,SSW,202,0.0,0.0,10,0.00,,,0.00,Wunderground v.1.15,2013-07-10 22:02:00,
2013-07-10 15:08:00,94.6,29.6,29.69,South,176,0.0,0.0,10,0.00,,,0.00,Wunderground v.1.15,2013-07-10 22:08:00,
2013-07-10 15:14:00,95.4,30.2,29.69,SSE,148,0.0,0.0,10,0.00,,,0.00,Wunderground v.1.15,2013-07-10 22:14:00,
2013-07-10 15:20:00,95.1,32.3,29.68,South,181,0.0,0.0,11,0.00,,,0.00,Wunderground v.1.15,2013-07-10 22:20:00,
2013-07-10 15:26:00,95.2,30.0,29.68,SSW,206,0.0,0.0,10,0.00,,,0.00,Wunderground v.1.15,2013-07-10 22:26:00,
2013-07-10 15:32:00,94.6,29.6,29.68,WSW,241,0.0,0.0,10,0.00,,,0.00,Wunderground v.1.15,2013-07-10 22:32:00,
2013-07-10 15:38:00,95.0,29.9,29.68,SW,214,0.0,0.0,10,0.00,,,0.00,Wunderground v.1.15,2013-07-10 22:38:00,
2013-07-10 15:44:00,94.1,31.6,29.68,SW,226,0.0,0.0,11,0.00,,,0.00,Wunderground v.1.15,2013-07-10 22:44:00,
2013-07-10 15:50:00,94.7,29.7,29.67,SSE,158,0.0,0.0,10,0.00,,,0.00,Wunderground v.1.15,2013-07-10 22:50:00,
2013-07-10 15:56:00,94.3,31.7,29.67,South,191,0.0,0.0,11,0.00,,,0.00,Wunderground v.1.15,2013-07-10 22:56:00,
2013-07-10 16:02:00,94.0,31.5,29.67,South,189,0.0,0.0,11,0.00,,,0.00,Wunderground v.1.15,2013-07-10 23:02:00,
2013-07-10 16:08:00,94.9,29.8,29.67,SSW,209,0.0,0.0,10,0.00,,,0.00,Wunderground v.1.15,2013-07-10 23:08:00,
2013-07-10 16:13:00,95.1,30.0,29.66,WSW,239,0.0,0.0,10,0.00,,,0.00,Wunderground v.1.15,2013-07-10 23:13:00,
2013-07-10 16:19:00,95.4,30.2,29.67,SW,229,0.0,0.0,10,0.00,,,0.00,Wunderground v.1.15,2013-07-10 23:19:00,
2013-07-10 16:25:00,94.2,31.6,29.67,South,185,0.0,0.0,11,0.00,,,0.00,Wunderground v.1.15,2013-07-10 23:25:00,
2013-07-10 16:31:00,93.7,31.3,29.66,West,273,0.0,0.0,11,0.00,,,0.00,Wunderground v.1.15,2013-07-10 23:31:00,
2013-07-10 16:37:00,93.2,30.9,29.66,SW,223,0.0,0.0,11,0.00,,,0.00,Wunderground v.1.15,2013-07-10 23:37:00,
2013-07-10 16:42:00,93.9,31.4,29.66,WSW,244,0.0,0.0,11,0.00,,,0.00,Wunderground v.1.15,2013-07-10 23:42:00,
2013-07-10 16:47:00,93.9,31.4,29.66,SSW,195,0.0,0.0,11,0.00,,,0.00,Wunderground v.1.15,2013-07-10 23:47:00,
2013-07-10 16:53:00,93.2,30.9,29.66,WSW,248,0.0,0.0,11,0.00,,,0.00,Wunderground v.1.15,2013-07-10 23:53:00,
2013-07-10 16:59:00,94.1,31.6,29.66,SW,223,0.0,0.0,11,0.00,,,0.00,Wunderground v.1.15,2013-07-10 23:59:00,
2013-07-10 17:04:00,94.1,31.6,29.66,WSW,256,0.0,0.0,11,0.00,,,0.00,Wunderground v.1.15,2013-07-11 00:04:00,
2013-07-10 17:10:00,93.6,31.2,29.65,WSW,245,0.0,0.0,11,0.00,,,0.00,Wunderground v.1.15,2013-07-11 00:10:00,
2013-07-10 17:16:00,93.4,33.2,29.65,SW,229,0.0,0.0,12,0.00,,,0.00,Wunderground v.1.15,2013-07-11 00:16:00,
2013-07-10 17:22:00,92.7,32.6,29.65,SW,235,0.0,0.0,12,0.00,,,0.00,Wunderground v.1.15,2013-07-11 00:22:00,
2013-07-10 17:28:00,92.5,32.5,29.65,WSW,253,0.0,0.0,12,0.00,,,0.00,Wunderground v.1.15,2013-07-11 00:28:00,
2013-07-10 17:34:00,92.7,32.6,29.65,WSW,252,0.0,0.0,12,0.00,,,0.00,Wunderground v.1.15,2013-07-11 00:34:00,
2013-07-10 17:40:00,92.5,32.5,29.65,WSW,247,0.0,0.0,12,0.00,,,0.00,Wunderground v.1.15,2013-07-11 00:40:00,
2013-07-10 17:45:00,92.2,32.3,29.65,WSW,256,0.0,0.0,12,0.00,,,0.00,Wunderground v.1.15,2013-07-11 00:45:00,
2013-07-10 17:51:00,92.3,32.3,29.65,WSW,251,0.0,0.0,12,0.00,,,0.00,Wunderground v.1.15,2013-07-11 00:51:00,
2013-07-10 17:57:00,91.6,33.8,29.66,West,271,0.0,0.0,13,0.00,,,0.00,Wunderground v.1.15,2013-07-11 00:57:00,
2013-07-10 18:03:00,91.1,33.4,29.65,WSW,257,0.0,0.0,13,0.00,,,0.00,Wunderground v.1.15,2013-07-11 01:03:00,
2013-07-10 18:09:00,90.8,33.2,29.65,WSW,248,0.0,0.0,13,0.00,,,0.00,Wunderground v.1.15,2013-07-11 01:09:00,
2013-07-10 18:15:00,90.6,33.0,29.66,WSW,250,0.0,0.0,13,0.00,,,0.00,Wunderground v.1.15,2013-07-11 01:15:00,
2013-07-10 18:21:00,90.4,32.9,29.65,WSW,245,0.0,0.0,13,0.00,,,0.00,Wunderground v.1.15,2013-07-11 01:21:00,
2013-07-10 18:27:00,90.0,34.4,29.66,SW,236,0.0,0.0,14,0.00,,,0.00,Wunderground v.1.15,2013-07-11 01:27:00,
2013-07-10 18:33:00,89.7,34.2,29.66,WSW,243,0.0,0.0,14,0.00,,,0.00,Wunderground v.1.15,2013-07-11 01:33:00,
2013-07-10 18:39:00,89.5,34.0,29.65,WSW,249,0.0,0.0,14,0.00,,,0.00,Wunderground v.1.15,2013-07-11 01:39:00,
2013-07-10 18:45:00,89.4,33.9,29.66,WSW,240,0.0,0.0,14,0.00,,,0.00,Wunderground v.1.15,2013-07-11 01:45:00,
2013-07-10 18:51:00,89.1,33.7,29.66,SW,219,0.0,0.0,14,0.00,,,0.00,Wunderground v.1.15,2013-07-11 01:51:00,
2013-07-10 18:57:00,89.0,33.6,29.65,WSW,254,0.0,0.0,14,0.00,,,0.00,Wunderground v.1.15,2013-07-11 01:57:00,
2013-07-10 19:03:00,88.9,33.5,29.66,SW,224,0.0,0.0,14,0.00,,,0.00,Wunderground v.1.15,2013-07-11 02:03:00,
2013-07-10 19:09:00,88.6,35.0,29.66,WSW,251,0.0,0.0,15,0.00,,,0.00,Wunderground v.1.15,2013-07-11 02:09:00,
2013-07-10 19:15:00,88.4,34.9,29.67,WSW,240,0.0,0.0,15,0.00,,,0.00,Wunderground v.1.15,2013-07-11 02:15:00,
2013-07-10 19:20:00,88.3,34.8,29.67,WSW,250,0.0,0.0,15,0.00,,,0.00,Wunderground v.1.15,2013-07-11 02:20:00,
2013-07-10 19:26:00,88.0,36.2,29.67,SW,236,0.0,0.0,16,0.00,,,0.00,Wunderground v.1.15,2013-07-11 02:26:00,
2013-07-10 19:32:00,87.9,34.5,29.67,WSW,239,0.0,0.0,15,0.00,,,0.00,Wunderground v.1.15,2013-07-11 02:32:00,
2013-07-10 19:38:00,87.9,34.5,29.67,WSW,240,0.0,0.0,15,0.00,,,0.00,Wunderground v.1.15,2013-07-11 02:38:00,
2013-07-10 19:44:00,87.8,34.4,29.67,SW,236,0.0,0.0,15,0.00,,,0.00,Wunderground v.1.15,2013-07-11 02:44:00,
2013-07-10 19:50:00,87.9,34.5,29.67,SW,236,0.0,0.0,15,0.00,,,0.00,Wunderground v.1.15,2013-07-11 02:50:00,
2013-07-10 19:56:00,87.7,34.3,29.67,WSW,240,0.0,0.0,15,0.00,,,0.00,Wunderground v.1.15,2013-07-11 02:56:00,
2013-07-10 20:02:00,87.5,34.1,29.67,WSW,248,0.0,0.0,15,0.00,,,0.00,Wunderground v.1.15,2013-07-11 03:02:00,
2013-07-10 20:08:00,87.4,34.1,29.67,WSW,250,0.0,0.0,15,0.00,,,0.00,Wunderground v.1.15,2013-07-11 03:08:00,
2013-07-10 20:13:00,87.2,33.9,29.67,WSW,247,0.0,0.0,15,0.00,,,0.00,Wunderground v.1.15,2013-07-11 03:13:00,
2013-07-10 20:19:00,86.9,33.7,29.67,SW,229,0.0,0.0,15,0.00,,,0.00,Wunderground v.1.15,2013-07-11 03:19:00,
2013-07-10 20:25:00,86.7,33.5,29.67,SW,236,0.0,0.0,15,0.00,,,0.00,Wunderground v.1.15,2013-07-11 03:25:00,
2013-07-10 20:31:00,86.5,35.0,29.67,West,259,0.0,0.0,16,0.00,,,0.00,Wunderground v.1.15,2013-07-11 03:31:00,
2013-07-10 20:37:00,86.3,34.8,29.67,WSW,243,0.0,0.0,16,0.00,,,0.00,Wunderground v.1.15,2013-07-11 03:37:00,
2013-07-10 20:43:00,86.1,34.7,29.68,SW,236,0.0,0.0,16,0.00,,,0.00,Wunderground v.1.15,2013-07-11 03:43:00,
2013-07-10 20:48:00,86.0,34.6,29.68,SW,230,0.0,0.0,16,0.00,,,0.00,Wunderground v.1.15,2013-07-11 03:48:00,
2013-07-10 20:54:00,85.9,34.5,29.68,WSW,247,0.0,0.0,16,0.00,,,0.00,Wunderground v.1.15,2013-07-11 03:54:00,
2013-07-10 21:01:00,85.6,34.2,29.69,WSW,245,0.0,0.0,16,0.00,,,0.00,Wunderground v.1.15,2013-07-11 04:01:00,
2013-07-10 21:02:00,85.5,34.2,29.69,WSW,244,0.0,0.0,16,0.00,,,0.00,Wunderground v.1.15,2013-07-11 04:02:00,
2013-07-10 21:08:00,85.3,34.0,29.69,SW,233,0.0,0.0,16,0.00,,,0.00,Wunderground v.1.15,2013-07-11 04:08:00,
2013-07-10 21:12:00,85.3,34.0,29.69,WSW,238,0.0,0.0,16,0.00,,,0.00,Wunderground v.1.15,2013-07-11 04:12:00,
2013-07-10 21:17:00,85.3,34.0,29.70,WSW,248,0.0,0.0,16,0.00,,,0.00,Wunderground v.1.15,2013-07-11 04:17:00,
2013-07-10 21:23:00,85.2,33.9,29.70,WSW,243,0.0,0.0,16,0.00,,,0.00,Wunderground v.1.15,2013-07-11 04:23:00,
2013-07-10 21:27:00,84.8,35.1,29.70,WSW,252,0.0,0.0,17,0.00,,,0.00,Wunderground v.1.15,2013-07-11 04:27:00,
2013-07-10 21:33:00,84.2,36.1,29.70,WSW,250,0.0,0.0,18,0.00,,,0.00,Wunderground v.1.15,2013-07-11 04:33:00,
2013-07-10 21:38:00,84.0,37.3,29.70,SW,231,0.0,0.0,19,0.00,,,0.00,Wunderground v.1.15,2013-07-11 04:38:00,
2013-07-10 21:44:00,83.9,37.2,29.70,SW,236,0.0,0.0,19,0.00,,,0.00,Wunderground v.1.15,2013-07-11 04:44:00,
2013-07-10 21:50:00,83.9,37.2,29.71,WSW,244,0.0,0.0,19,0.00,,,0.00,Wunderground v.1.15,2013-07-11 04:50:00,
2013-07-10 21:56:00,83.5,36.9,29.71,WSW,244,0.0,0.0,19,0.00,,,0.00,Wunderground v.1.15,2013-07-11 04:56:00,
2013-07-10 22:02:00,83.3,38.0,29.71,WSW,251,0.0,0.0,20,0.00,,,0.00,Wunderground v.1.15,2013-07-11 05:02:00,
2013-07-10 22:08:00,82.9,37.7,29.71,SW,227,0.0,0.0,20,0.00,,,0.00,Wunderground v.1.15,2013-07-11 05:08:00,
2013-07-10 22:14:00,82.7,36.2,29.71,SW,234,0.0,0.0,19,0.00,,,0.00,Wunderground v.1.15,2013-07-11 05:14:00,
2013-07-10 22:20:00,82.5,36.1,29.71,SW,221,0.0,0.0,19,0.00,,,0.00,Wunderground v.1.15,2013-07-11 05:20:00,
2013-07-10 22:25:00,82.3,37.2,29.70,SW,227,0.0,0.0,20,0.00,,,0.00,Wunderground v.1.15,2013-07-11 05:25:00,
2013-07-10 22:31:00,82.1,37.0,29.70,SW,226,0.0,0.0,20,0.00,,,0.00,Wunderground v.1.15,2013-07-11 05:31:00,
2013-07-10 22:36:00,81.9,36.9,29.70,SW,234,0.0,0.0,20,0.00,,,0.00,Wunderground v.1.15,2013-07-11 05:36:00,
2013-07-10 22:42:00,81.9,36.9,29.70,WSW,240,0.0,0.0,20,0.00,,,0.00,Wunderground v.1.15,2013-07-11 05:42:00,
2013-07-10 22:48:00,81.8,38.0,29.70,SW,224,0.0,0.0,21,0.00,,,0.00,Wunderground v.1.15,2013-07-11 05:48:00,
2013-07-10 22:54:00,81.3,38.8,29.70,SW,229,0.0,0.0,22,0.00,,,0.00,Wunderground v.1.15,2013-07-11 05:54:00,
2013-07-10 23:00:00,80.9,39.6,29.70,WSW,241,0.0,0.0,23,0.00,,,0.00,Wunderground v.1.15,2013-07-11 06:00:00,
2013-07-10 23:06:00,80.7,40.5,29.70,SW,229,0.0,0.0,24,0.00,,,0.00,Wunderground v.1.15,2013-07-11 06:06:00,
2013-07-10 23:12:00,80.5,41.4,29.70,SW,224,0.0,0.0,25,0.00,,,0.00,Wunderground v.1.15,2013-07-11 06:12:00,
2013-07-10 23:18:00,80.8,39.5,29.70,SW,221,0.0,0.0,23,0.00,,,0.00,Wunderground v.1.15,2013-07-11 06:18:00,
2013-07-10 23:23:00,80.7,40.5,29.70,SW,230,0.0,0.0,24,0.00,,,0.00,Wunderground v.1.15,2013-07-11 06:23:00,
2013-07-10 23:29:00,80.5,40.4,29.70,SSW,212,0.0,0.0,24,0.00,,,0.00,Wunderground v.1.15,2013-07-11 06:29:00,
2013-07-10 23:35:00,80.3,40.2,29.70,SSW,209,0.0,0.0,24,0.00,,,0.00,Wunderground v.1.15,2013-07-11 06:35:00,
2013-07-10 23:41:00,80.8,39.5,29.70,SSW,198,0.0,0.0,23,0.00,,,0.00,Wunderground v.1.15,2013-07-11 06:41:00,
2013-07-10 23:47:00,80.7,39.4,29.69,SW,220,0.0,0.0,23,0.00,,,0.00,Wunderground v.1.15,2013-07-11 06:47:00,
2013-07-10 23:53:00,80.5,39.3,29.69,SW,232,0.0,0.0,23,0.00,,,0.00,Wunderground v.1.15,2013-07-11 06:53:00,
2013-07-10 23:59:00,80.2,40.1,29.69,SSW,213,0.0,0.0,24,0.00,,,0.00,Wunderground v.1.15,2013-07-11 06:59:00,